[Date Prev][Date Next][Thread Prev][Thread Next] - [Date Index][Thread Index][Author Index]
2 Line ISS Keps 8-10
- Subject: [sarex] 2 Line ISS Keps 8-10
- From: "Dave Larsen PhD" <doc@xxxxxxxxxxx>
- Date: Sat, 10 Aug 2002 15:44:14 -0700
ISS
1 25544U 98067A 02222.82968816 .00024811 00000-0 33518-3 0 323
2 25544 51.6381 138.6856 0017782 125.2744 278.6908 15.57431034212551
----
Via the sarex mailing list at AMSAT.ORG courtesy of AMSAT-NA.
To unsubscribe, send "unsubscribe sarex" to Majordomo@amsat.org
AMSAT Home